Location: Tel Aviv
(32.0670°N, 34.7670°E)
Time: 13:46:14
(UTC+02:00)

A-11 Canister half - Visible Passes

Search period start: 19 January 2022 00:00
Search period end: 29 January 2022 00:00
Orbit: 1516 x 1684 km, 47.2° (Epoch: 18 January)

Date Brightness Start Highest point End Pass type
(mag) Time Alt. Az. Time Alt. Az. Time Alt. Az.
19 Jan 9.1 17:28:01 10° SW 17:37:32 81° NW 17:46:51 10° NE visible
19 Jan 9.8 19:35:07 10° W 19:43:31 36° NNW 19:45:30 33° N visible
19 Jan 11.0 21:42:38 10° NW 21:43:42 13° NW 21:43:42 13° NW visible
20 Jan 9.8 19:12:01 10° W 19:20:30 37° NNW 19:23:57 29° NNE visible
20 Jan 10.8 21:19:39 10° NW 21:22:09 18° NW 21:22:09 18° NW visible
21 Jan 9.8 18:48:54 10° W 18:57:29 38° NNW 19:02:23 24° NNE visible
21 Jan 10.5 20:56:38 10° NW 21:00:35 23° NNW 21:00:35 23° NNW visible
22 Jan 9.8 18:25:48 10° W 18:34:29 40° NNW 18:40:47 18° NE visible
22 Jan 10.2 20:33:37 10° NW 20:39:00 27° NNW 20:39:00 27° NNW visible
23 Jan 9.8 18:02:42 10° W 18:11:28 41° NNW 18:19:12 13° NE visible
23 Jan 10.0 20:10:35 10° NW 20:17:24 30° N 20:17:24 30° N visible
24 Jan 9.7 17:39:36 10° W 17:48:28 43° NNW 17:57:11 10° NE visible
24 Jan 9.9 19:47:33 10° WNW 19:55:35 31° N 19:55:48 31° N visible
24 Jan 11.1 21:53:24 10° NW 21:54:00 12° NW 21:54:00 12° NW visible
25 Jan 9.7 17:16:30 10° W 17:25:28 45° NNW 17:34:16 10° NE visible
25 Jan 9.8 19:24:30 10° WNW 19:32:32 31° N 19:34:11 29° NNE visible
25 Jan 10.8 21:30:29 10° NW 21:32:23 17° NW 21:32:23 17° NW visible
26 Jan 9.9 19:01:26 10° WNW 19:09:29 31° N 19:12:35 26° NNE visible
26 Jan 10.5 21:07:34 10° NW 21:10:47 23° NW 21:10:47 23° NW visible
27 Jan 9.9 18:38:22 10° WNW 18:46:26 31° N 18:50:59 21° NE visible
27 Jan 10.2 20:44:38 10° NW 20:49:12 29° NNW 20:49:12 29° NNW visible
28 Jan 9.9 18:15:16 10° WNW 18:23:23 31° N 18:29:25 16° NE visible
28 Jan 9.8 20:21:42 10° NW 20:27:37 35° NNW 20:27:37 35° NNW visible
